Daviess Cnty AP, Washington,, IN

8:57 AM EDT on July 21, 2017 (GMT -0400)
Daviess County

Weather History for KDCY - March, 2014

Change the Weather History Date:

Friday, March 14, 2014

  Actual Average (KLWV) Record (KLWV)
Temperature  
Mean Temperature 50 °F -  
Max Temperature 62 °F 49 °F 81 °F (2012)
Min Temperature 37 °F 31 °F 13 °F (1993)
Degree Days  
Heating Degree Days 16    
Moisture  
Dew Point 35 °F    
Average Humidity 56    
Maximum Humidity 71    
Minimum Humidity 40    
Precipitation  
Precipitation 0.00 in - - ()
Sea Level Pressure  
Sea Level Pressure 29.92 in    
Wind  
Wind Speed 16 mph (SSW)    
Max Wind Speed 29 mph    
Max Gust Speed 40 mph    
Visibility 10 miles    
Events      
Averages and records for this station are not official NWS values.
T = Trace of Precipitation, MM = Missing Value Source: NWS Daily Summary

Daily Weather History Graph

Daily Weather History Graph

Search for Another Location

Airport or City:

Trip Planner

Search our weather history database for the weather conditions in past years. The results will help you decide how hot, cold, wet, or windy it might be!

Date:

Astronomy

Mar. 14, 2014 Rise Set
Actual Time 8:01 AM EDT 7:54 PM EDT
Civil Twilight 7:34 AM EDT 8:21 PM EDT
Nautical Twilight 7:04 AM EDT 8:52 PM EDT
Astronomical Twilight 6:32 AM EDT 9:23 PM EDT
Moon 6:17 PM EDT (3/14) 6:40 AM EDT (3/14)
Length of Visible Light 12h 46m
Length of Day
11h 53m
Waxing Gibbous, 96% of the Moon is Illuminated
Mar 14
Waxing Gibbous
Mar 16
Full
Mar 23
Last Quarter
Mar 30
New
Apr 7
First Quarter

Hourly Weather History & Observations

Time (EDT) Temp. Windchill Dew Point Humidity Pressure Visibility Wind Dir Wind Speed Gust Speed Precip Events Conditions
12:15 AM 37.6 °F 30.0 °F 28.4 °F 69% 30.04 in 10.0 mi South 11.5 mph - N/A   Clear
12:35 AM 37.6 °F 30.0 °F 28.6 °F 70% 30.04 in 10.0 mi South 11.5 mph - N/A   Clear
12:55 AM 37.6 °F 30.5 °F 28.9 °F 71% 30.03 in 10.0 mi South 10.4 mph - N/A   Clear
1:15 AM 38.1 °F 30.2 °F 28.4 °F 68% 30.03 in 10.0 mi South 12.7 mph - N/A   Clear
1:35 AM 38.3 °F 30.5 °F 28.4 °F 68% 30.02 in 10.0 mi South 12.7 mph - N/A   Clear
1:55 AM 38.3 °F 29.7 °F 28.4 °F 68% 30.01 in 10.0 mi South 15.0 mph - N/A   Clear
2:15 AM 38.1 °F 29.8 °F 28.2 °F 68% 30.01 in 10.0 mi South 13.8 mph - N/A   Clear
2:35 AM 37.8 °F 29.0 °F 28.2 °F 68% 30.00 in 10.0 mi South 15.0 mph - N/A   Clear
2:55 AM 37.4 °F 29.3 °F 28.4 °F 70% 30.00 in 10.0 mi South 12.7 mph - N/A   Clear
3:15 AM 38.5 °F 30.7 °F 28.9 °F 69% 30.00 in 10.0 mi South 12.7 mph - N/A   Clear
3:35 AM 41.0 °F 33.1 °F 28.9 °F 62% 29.99 in 10.0 mi South 15.0 mph - N/A   Clear
3:55 AM 40.8 °F 32.9 °F 29.3 °F 64% 29.98 in 10.0 mi South 15.0 mph 21.9 mph N/A   Clear
4:15 AM 41.0 °F 32.8 °F 29.7 °F 64% 29.98 in 10.0 mi South 16.1 mph 20.7 mph N/A   Clear
4:35 AM 41.4 °F 33.3 °F 30.0 °F 64% 29.97 in 10.0 mi South 16.1 mph - N/A   Clear
4:55 AM 42.1 °F 33.3 °F 30.2 °F 63% 29.97 in 10.0 mi SSW 19.6 mph 26.5 mph N/A   Clear
5:15 AM 42.6 °F 34.6 °F 30.7 °F 63% 29.96 in 10.0 mi South 17.3 mph 21.9 mph N/A   Clear
5:35 AM 43.3 °F 35.0 °F 31.1 °F 62% 29.96 in 10.0 mi SSW 19.6 mph 24.2 mph N/A   Clear
5:55 AM 43.0 °F 34.8 °F 31.1 °F 63% 29.96 in 10.0 mi South 18.4 mph - N/A   Clear
6:15 AM 43.0 °F 34.5 °F 31.6 °F 64% 29.96 in 10.0 mi SSW 19.6 mph - N/A   Clear
6:35 AM 42.8 °F 34.8 °F 31.8 °F 65% 29.96 in 10.0 mi South 17.3 mph 23.0 mph N/A   Clear
6:55 AM 42.8 °F 35.1 °F 31.8 °F 65% 29.96 in 10.0 mi South 16.1 mph 23.0 mph N/A   Clear
7:15 AM 42.8 °F 35.1 °F 32.0 °F 66% 29.96 in 10.0 mi South 16.1 mph - N/A   Clear
7:35 AM 42.6 °F 34.9 °F 32.0 °F 66% 29.96 in 10.0 mi SSW 16.1 mph - N/A   Clear
7:55 AM 43.2 °F 35.6 °F 32.0 °F 65% 29.96 in 10.0 mi SSW 16.1 mph - N/A   Clear
8:15 AM 44.1 °F 36.5 °F 32.0 °F 63% 29.97 in 10.0 mi SSW 17.3 mph 20.7 mph N/A   Clear
8:35 AM 44.6 °F 36.9 °F 32.2 °F 62% 29.97 in 10.0 mi SSW 18.4 mph - N/A   Clear
8:55 AM 45.5 °F 37.8 °F 32.2 °F 60% 29.97 in 10.0 mi SSW 19.6 mph 24.2 mph N/A   Clear
9:15 AM 46.6 °F - 32.5 °F 58% 29.97 in 10.0 mi SSW 18.4 mph 31.1 mph N/A   Clear
9:35 AM 46.9 °F - 32.7 °F 58% 29.97 in 10.0 mi SSW 18.4 mph 25.3 mph N/A   Clear
9:55 AM 48.4 °F - 33.4 °F 56% 29.96 in 10.0 mi SSW 19.6 mph 26.5 mph N/A   Clear
10:15 AM 50.0 °F - 33.6 °F 53% 29.94 in 10.0 mi SSW 21.9 mph - N/A   Scattered Clouds
10:35 AM 50.9 °F - 34.3 °F 53% 29.94 in 10.0 mi SSW 19.6 mph 27.6 mph N/A   Scattered Clouds
10:55 AM 51.6 °F - 34.2 °F 51% 29.94 in 10.0 mi SSW 18.4 mph 24.2 mph N/A   Clear
11:15 AM 53.1 °F - 34.5 °F 49% 29.93 in 10.0 mi SSW 19.6 mph 27.6 mph N/A   Clear
11:35 AM 54.7 °F - 35.1 °F 48% 29.93 in 10.0 mi SSW 18.4 mph 32.2 mph N/A   Clear
11:55 AM 54.3 °F - 34.9 °F 48% 29.91 in 10.0 mi SSW 20.7 mph 31.1 mph N/A   Clear
12:15 PM 55.2 °F - 35.6 °F 48% 29.90 in 10.0 mi SSW 20.7 mph 28.8 mph N/A   Clear
12:35 PM 57.9 °F - 37.4 °F 46% 29.90 in 10.0 mi SSW 26.5 mph 31.1 mph N/A   Clear
12:55 PM 58.5 °F - 35.6 °F 42% 29.88 in 10.0 mi SSW 26.5 mph 38.0 mph N/A   Clear
1:15 PM 59.5 °F - 36.7 °F 43% 29.87 in 10.0 mi SSW 24.2 mph 33.4 mph N/A   Clear
1:35 PM 59.9 °F - 36.9 °F 42% 29.87 in 10.0 mi SSW 27.6 mph 33.4 mph N/A   Clear
1:55 PM 60.4 °F - 37.9 °F 43% 29.85 in 10.0 mi SSW 21.9 mph 38.0 mph N/A   Clear
2:15 PM 60.1 °F - 37.2 °F 43% 29.86 in 10.0 mi SSW 17.3 mph 32.2 mph N/A   Clear
2:35 PM 61.2 °F - 36.3 °F 40% 29.84 in 10.0 mi SSW 27.6 mph 38.0 mph N/A   Clear
2:55 PM 60.8 °F - 36.1 °F 40% 29.83 in 10.0 mi SW 28.8 mph 40.3 mph N/A   Clear
3:15 PM 61.3 °F - 36.9 °F 40% 29.82 in 10.0 mi SW 26.5 mph 34.5 mph N/A   Clear
3:35 PM 61.0 °F - 36.9 °F 41% 29.82 in 10.0 mi SW 27.6 mph 35.7 mph N/A   Clear
3:55 PM 60.8 °F - 36.7 °F 41% 29.82 in 10.0 mi SW 23.0 mph 35.7 mph N/A   Clear
4:15 PM 61.0 °F - 36.7 °F 40% 29.82 in 10.0 mi SW 20.7 mph 29.9 mph N/A   Clear
4:35 PM 62.4 °F - 37.6 °F 40% 29.82 in 10.0 mi SW 25.3 mph 33.4 mph N/A   Scattered Clouds
4:55 PM 61.2 °F - 37.2 °F 41% 29.81 in 10.0 mi SW 19.6 mph 32.2 mph N/A   Mostly Cloudy
5:15 PM 61.0 °F - 37.0 °F 41% 29.81 in 10.0 mi WSW 19.6 mph 35.7 mph N/A   Overcast
5:35 PM 60.1 °F - 36.9 °F 42% 29.81 in 10.0 mi SW 21.9 mph 32.2 mph N/A   Overcast
5:55 PM 59.2 °F - 37.8 °F 45% 29.82 in 10.0 mi SW 20.7 mph 29.9 mph N/A   Overcast
6:15 PM 58.8 °F - 38.3 °F 47% 29.83 in 10.0 mi SW 17.3 mph 20.7 mph N/A   Overcast
6:35 PM 59.2 °F - 39.4 °F 48% 29.83 in 10.0 mi SW 15.0 mph 25.3 mph N/A   Mostly Cloudy
6:55 PM 58.3 °F - 39.9 °F 50% 29.83 in 10.0 mi SW 18.4 mph 23.0 mph N/A   Clear
7:15 PM 58.8 °F - 40.3 °F 50% 29.83 in 10.0 mi SW 12.7 mph 24.2 mph N/A   Clear
7:35 PM 57.7 °F - 40.6 °F 53% 29.84 in 10.0 mi SSW 12.7 mph 18.4 mph N/A   Clear
7:55 PM 56.8 °F - 40.6 °F 55% 29.85 in 10.0 mi SW 12.7 mph 16.1 mph N/A   Clear
8:15 PM 55.8 °F - 41.0 °F 58% 29.85 in 10.0 mi SW 13.8 mph 19.6 mph N/A   Clear
8:35 PM 55.6 °F - 41.2 °F 58% 29.87 in 10.0 mi SW 15.0 mph 21.9 mph N/A   Clear
8:55 PM 54.9 °F - 41.5 °F 61% 29.87 in 10.0 mi SW 18.4 mph - N/A   Clear
9:15 PM 54.5 °F - 41.5 °F 62% 29.88 in 10.0 mi SW 15.0 mph 20.7 mph N/A   Mostly Cloudy
9:35 PM 54.3 °F - 41.7 °F 62% 29.89 in 10.0 mi SW 15.0 mph - N/A   Overcast
9:55 PM 53.8 °F - 41.7 °F 64% 29.90 in 10.0 mi SW 13.8 mph 17.3 mph N/A   Overcast
10:15 PM 54.0 °F - 41.5 °F 63% 29.91 in 10.0 mi SW 13.8 mph 21.9 mph N/A   Overcast
10:35 PM 54.0 °F - 41.5 °F 63% 29.91 in 10.0 mi WSW 13.8 mph 19.6 mph N/A   Overcast
10:55 PM 54.1 °F - 41.5 °F 62% 29.93 in 10.0 mi WSW 11.5 mph - N/A   Overcast
11:15 PM 53.1 °F - 41.9 °F 66% 29.93 in 10.0 mi WSW 9.2 mph - N/A   Overcast
11:35 PM 52.9 °F - 41.9 °F 66% 29.95 in 10.0 mi WNW 12.7 mph 16.1 mph N/A   Overcast
11:55 PM 51.6 °F - 42.1 °F 70% 29.96 in 10.0 mi WNW 9.2 mph - N/A   Overcast